GW3919 Weather Reports


Display with metric or nautical units.
time (UTC)temp
F
wind
direction
speed
MPH
gust
MPH
rain 1hr
in
rain 24hr
in
rain mn
in
humidity
%
barometer
mb
20260901012132 94 241 0.0 1.0 0.00 0.00 0.00 43 1013.8
20260901011628 95 274 2.0 3.0 0.00 0.00 0.00 42 1013.9
20260901011127 95 252 1.0 2.0 0.00 0.00 0.00 42 1013.8
20260901010622 95 220 1.0 2.0 0.00 0.00 0.00 41 1013.6
20260901010121 96 294 2.0 2.0 0.00 0.00 0.00 40 1013.8
20260901005620 96 253 2.0 2.0 0.00 0.00 0.00 40 1013.6
20260901005115 96 305 4.0 4.0 0.00 0.00 0.00 39 1013.6
20260901004615 96 278 2.0 2.0 0.00 0.00 0.00 39 1013.4
20260901004110 97 269 0.0 2.0 0.00 0.00 0.00 38 1013.6
20260901003605 98 314 2.0 3.0 0.00 0.00 0.00 37 1013.5
20260901003103 98 316 2.0 2.0 0.00 0.00 0.00 37 1013.6
20260901002558 99 204 0.0 3.0 0.00 0.00 0.00 36 1013.3
20260901002053 99 258 2.0 2.0 0.00 0.00 0.00 36 1013.7
20260901001553 99 313 1.0 6.0 0.00 0.00 0.00 36 1013.5
20260901001048 100 266 3.0 3.0 0.00 0.00 0.00 36 1013.7
20260901000543 100 272 3.0 4.0 0.00 0.00 0.00 35 1013.6
20260901000039 101 273 1.0 3.0 0.00 0.00 0.00 35 1013.6
20260831235532 101 244 2.0 3.0 0.00 0.00 0.00 35 1013.4
20260831235029 101 277 2.0 5.0 0.00 0.00 0.00 35 1013.7
20260831234522 102 293 2.0 4.0 0.00 0.00 0.00 34 1013.6
20260831234018 102 272 0.0 3.0 0.00 0.00 0.00 34 1013.7
20260831233513 102 260 3.0 3.0 0.00 0.00 0.00 35 1013.7
20260831233009 102 306 3.0 4.0 0.00 0.00 0.00 35 1013.6
20260831232504 102 273 2.0 4.0 0.00 0.00 0.00 34 1013.7
20260831231959 102 254 1.0 4.0 0.00 0.00 0.00 35 1013.7
20260831231456 102 272 4.0 6.0 0.00 0.00 0.00 34 1013.4
20260831230951 104 265 2.0 3.0 0.00 0.00 0.00 32 1013.3
20260831230446 103 210 0.0 3.0 0.00 0.00 0.00 33 1013.8
20260831225940 103 295 3.0 5.0 0.00 0.00 0.00 33 1013.6
20260831225436 102 262 3.0 5.0 0.00 0.00 0.00 34 1013.7
20260831224931 103 285 2.0 6.0 0.00 0.00 0.00 33 1013.8
20260831224431 103 254 2.0 4.0 0.00 0.00 0.00 33 1013.7
20260831223926 102 281 2.0 4.0 0.00 0.00 0.00 34 1013.8
20260831223421 103 266 2.0 4.0 0.00 0.00 0.00 34 1013.8
20260831222918 102 282 3.0 6.0 0.00 0.00 0.00 33 1013.6
20260831222413 104 299 4.0 5.0 0.00 0.00 0.00 34 1013.9
20260831221908 104 272 3.0 3.0 0.00 0.00 0.00 34 1013.8
20260831221358 103 274 2.0 5.0 0.00 0.00 0.00 34 1014.0
20260831220853 103 253 2.0 4.0 0.00 0.00 0.00 35 1014.0
20260831220348 100 241 4.0 4.0 0.00 0.00 0.00 36 1014.0
20260831215844 102 257 3.0 5.0 0.00 0.00 0.00 35 1014.0
20260831215339 102 295 3.0 6.0 0.00 0.00 0.00 35 1014.1
20260831214835 102 263 5.0 6.0 0.00 0.00 0.00 35 1014.3
20260831214333 103 276 3.0 5.0 0.00 0.00 0.00 36 1014.4
20260831213828 103 61 2.0 4.0 0.00 0.00 0.00 36 1014.2
20260831213325 101 285 1.0 5.0 0.00 0.00 0.00 37 1014.3
20260831212820 100 310 3.0 4.0 0.00 0.00 0.00 37 1014.3
20260831212316 101 265 2.0 4.0 0.00 0.00 0.00 37 1014.3
20260831211809 102 265 3.0 5.0 0.00 0.00 0.00 36 1014.4
20260831211304 101 296 2.0 2.0 0.00 0.00 0.00 37 1014.7
20260831210804 100 258 2.0 4.0 0.00 0.00 0.00 37 1014.4
20260831210301 99 265 3.0 4.0 0.00 0.00 0.00 38 1014.8
20260831205800 100 244 2.0 4.0 0.00 0.00 0.00 36 1014.7
20260831205256 100 206 2.0 4.0 0.00 0.00 0.00 37 1014.9
20260831204755 100 294 3.0 7.0 0.00 0.00 0.00 37 1014.8
20260831204255 103 313 1.0 5.0 0.00 0.00 0.00 36 1014.8
20260831203754 104 245 2.0 7.0 0.00 0.00 0.00 34 1014.7
20260831203249 103 321 4.0 18.0 0.00 0.00 0.00 34 1014.9
20260831202747 103 276 4.0 6.0 0.00 0.00 0.00 35 1014.9
20260831202242 102 248 2.0 4.0 0.00 0.00 0.00 35 1015.0
20260831201736 102 278 3.0 5.0 0.00 0.00 0.00 34 1015.3
20260831201235 102 264 3.0 4.0 0.00 0.00 0.00 33 1015.2
20260831200731 100 284 3.0 5.0 0.00 0.00 0.00 36 1015.3
20260831200226 100 298 4.0 4.0 0.00 0.00 0.00 38 1015.2
20260831195722 102 258 4.0 6.0 0.00 0.00 0.00 39 1015.5
20260831195217 102 280 3.0 7.0 0.00 0.00 0.00 39 1015.6
20260831194712 100 269 4.0 8.0 0.00 0.00 0.00 39 1015.8
20260831194208 104 282 3.0 7.0 0.00 0.00 0.00 37 1015.6
20260831193707 103 88 1.0 6.0 0.00 0.00 0.00 33 1015.7
20260831193202 102 203 3.0 6.0 0.00 0.00 0.00 35 1015.9
20260831192658 101 235 2.0 4.0 0.00 0.00 0.00 38 1015.9
20260831192153 99 215 0.0 4.0 0.00 0.00 0.00 41 1015.9
20260831191648 99 292 4.0 4.0 0.00 0.00 0.00 41 1016.2
20260831191144 99 239 6.0 8.0 0.00 0.00 0.00 40 1016.0
20260831190639 103 294 2.0 5.0 0.00 0.00 0.00 38 1015.9
20260831190138 101 49 0.0 4.0 0.00 0.00 0.00 39 1016.0
20260831185634 99 278 2.0 4.0 0.00 0.00 0.00 40 1016.0
20260831185130 98 261 4.0 5.0 0.00 0.00 0.00 41 1016.2
20260831184629 101 245 1.0 4.0 0.00 0.00 0.00 39 1016.2
20260831184125 99 281 3.0 4.0 0.00 0.00 0.00 41 1016.3
20260831183619 102 268 1.0 4.0 0.00 0.00 0.00 40 1016.3
20260831183118 102 314 4.0 4.0 0.00 0.00 0.00 39 1016.2
20260831182617 101 259 3.0 4.0 0.00 0.00 0.00 40 1016.6
20260831182113 101 272 4.0 5.0 0.00 0.00 0.00 41 1016.5
20260831181613 100 276 3.0 4.0 0.00 0.00 0.00 41 1016.6
20260831181108 101 325 2.0 4.0 0.00 0.00 0.00 41 1016.7
20260831180603 100 314 0.0 5.0 0.00 0.00 0.00 41 1016.8
20260831180058 99 161 2.0 4.0 0.00 0.00 0.00 42 1017.0
20260831175558 100 245 2.0 4.0 0.00 0.00 0.00 42 1017.3
20260831175055 101 207 0.0 3.0 0.00 0.00 0.00 41 1017.1
20260831174550 100 274 2.0 3.0 0.00 0.00 0.00 43 1017.1
20260831174050 100 266 5.0 5.0 0.00 0.00 0.00 43 1017.2
20260831173548 100 328 4.0 4.0 0.00 0.00 0.00 42 1017.3
20260831173045 100 252 6.0 7.0 0.00 0.00 0.00 43 1017.0
20260831172539 100 273 2.0 4.0 0.00 0.00 0.00 43 1017.3
20260831172034 99 261 4.0 4.0 0.00 0.00 0.00 44 1017.4
20260831171530 97 204 0.0 4.0 0.00 0.00 0.00 45 1017.6
20260831171027 98 299 3.0 5.0 0.00 0.00 0.00 45 1017.9
20260831170522 98 309 2.0 6.0 0.00 0.00 0.00 45 1017.6
20260831170020 97 248 0.0 3.0 0.00 0.00 0.00 45 1017.4
20260831165520 97 324 2.0 5.0 0.00 0.00 0.00 46 1017.8
20260831165017 97 107 2.0 7.0 0.00 0.00 0.00 47 1017.8
20260831164512 98 276 2.0 6.0 0.00 0.00 0.00 47 1017.8
20260831164008 96 337 3.0 6.0 0.00 0.00 0.00 48 1017.8
20260831163503 95 0 2.0 4.0 0.00 0.00 0.00 49 1017.6
20260831163002 95 314 4.0 5.0 0.00 0.00 0.00 49 1017.7
20260831162457 96 144 0.0 6.0 0.00 0.00 0.00 48 1017.9
20260831161955 96 307 1.0 4.0 0.00 0.00 0.00 49 1017.8
20260831161452 96 143 1.0 4.0 0.00 0.00 0.00 48 1017.8
20260831160947 97 293 3.0 4.0 0.00 0.00 0.00 48 1017.8
20260831160447 96 298 0.0 3.0 0.00 0.00 0.00 48 1018.0
20260831155947 96 29 1.0 3.0 0.00 0.00 0.00 49 1018.0
20260831155442 95 250 2.0 3.0 0.00 0.00 0.00 49 1018.0
20260831154938 95 28 1.0 5.0 0.00 0.00 0.00 51 1017.9
20260831154434 93 309 1.0 4.0 0.00 0.00 0.00 51 1018.0
20260831153932 93 259 2.0 6.0 0.00 0.00 0.00 50 1018.0
20260831153428 92 130 6.0 6.0 0.00 0.00 0.00 52 1018.0
20260831152925 93 304 3.0 4.0 0.00 0.00 0.00 54 1018.0
20260831152420 91 244 0.0 4.0 0.00 0.00 0.00 57 1017.8
20260831151915 91 143 2.0 3.0 0.00 0.00 0.00 58 1018.0
20260831151414 90 326 0.0 3.0 0.00 0.00 0.00 59 1017.8
20260831150909 91 124 5.0 6.0 0.00 0.00 0.00 59 1017.8
20260831150359 91 333 2.0 3.0 0.00 0.00 0.00 59 1017.9
20260831145858 91 290 0.0 2.0 0.00 0.00 0.00 60 1017.9
20260831145354 91 287 0.0 4.0 0.00 0.00 0.00 60 1017.8
20260831144850 90 313 2.0 4.0 0.00 0.00 0.00 62 1017.9
20260831144346 87 39 0.0 3.0 0.00 0.00 0.00 66 1017.7
20260831143846 88 18 1.0 1.0 0.00 0.00 0.00 64 1017.9
20260831143341 89 91 0.0 2.0 0.00 0.00 0.00 63 1017.8
20260831142837 88 261 2.0 4.0 0.00 0.00 0.00 64 1017.9
20260831142332 88 303 1.0 4.0 0.00 0.00 0.00 65 1017.7
20260831141826 89 320 2.0 2.0 0.00 0.00 0.00 65 1017.7
20260831141321 87 235 0.0 2.0 0.00 0.00 0.00 67 1017.7
20260831140816 87 269 2.0 3.0 0.00 0.00 0.00 67 1017.7
20260831140310 86 330 1.0 3.0 0.00 0.00 0.00 67 1017.4
20260831135808 87 150 0.0 3.0 0.00 0.00 0.00 67 1017.7
20260831135306 86 301 2.0 3.0 0.00 0.00 0.00 68 1017.7
20260831134759 86 243 1.0 2.0 0.00 0.00 0.00 68 1017.4
20260831134255 87 323 1.0 3.0 0.00 0.00 0.00 67 1017.6
20260831133754 87 321 1.0 2.0 0.00 0.00 0.00 67 1017.1
20260831133248 86 336 0.0 3.0 0.00 0.00 0.00 68 1017.2
20260831132743 87 276 2.0 2.0 0.00 0.00 0.00 67 1017.1
20260831132238 86 253 0.0 2.0 0.00 0.00 0.00 68 1017.1
20260831131738 84 245 2.0 3.0 0.00 0.00 0.00 70 1016.9
20260831131235 85 321 0.0 3.0 0.00 0.00 0.00 70 1016.9
20260831130729 84 297 1.0 2.0 0.00 0.00 0.00 71 1016.9
20260831130225 84 312 2.0 2.0 0.00 0.00 0.00 71 1016.8
20260831125723 83 209 1.0 1.0 0.00 0.00 0.00 73 1016.9
20260831125220 80 199 1.0 2.0 0.00 0.00 0.00 76 1016.9
20260831124714 80 311 0.0 1.0 0.00 0.00 0.00 76 1016.9
20260831124211 80 269 0.0 2.0 0.00 0.00 0.00 77 1016.7
20260831123711 79 242 0.0 1.0 0.00 0.00 0.00 77 1016.5
20260831123210 79 295 2.0 2.0 0.00 0.00 0.00 77 1016.3
20260831122709 79 279 0.0 2.0 0.00 0.00 0.00 77 1016.4
20260831122205 79 89 0.0 3.0 0.00 0.00 0.00 77 1016.3
20260831121704 79 205 0.0 1.0 0.00 0.00 0.00 76 1016.2
20260831121201 79 246 0.0 0.0 0.00 0.00 0.00 76 1016.2
20260831120656 79 230 0.0 2.0 0.00 0.00 0.00 76 1016.2
20260831120150 79 253 1.0 1.0 0.00 0.00 0.00 75 1016.0
20260831115647 80 242 1.0 2.0 0.00 0.00 0.00 75 1016.0
20260831115142 80 224 0.0 2.0 0.00 0.00 0.00 75 1015.9
20260831114641 80 266 1.0 1.0 0.00 0.00 0.00 75 1016.0
20260831114136 80 309 0.0 1.0 0.00 0.00 0.00 74 1015.6
20260831113636 80 304 0.0 2.0 0.00 0.00 0.00 74 1015.8
20260831113131 80 297 0.0 0.0 0.00 0.00 0.00 74 1015.8
20260831112630 81 260 1.0 1.0 0.00 0.00 0.00 74 1015.5
20260831112125 81 301 0.0 1.0 0.00 0.00 0.00 73 1015.5
20260831111621 81 322 0.0 1.0 0.00 0.00 0.00 73 1015.3
20260831111117 81 296 0.0 1.0 0.00 0.00 0.00 73 1015.6
20260831110612 81 221 3.0 3.0 0.00 0.00 0.00 72 1015.3
20260831105601 82 329 0.0 2.0 0.00 0.00 0.00 72 1015.4
20260831105056 82 266 2.0 2.0 0.00 0.00 0.00 72 1015.4
20260831104552 82 235 0.0 1.0 0.00 0.00 0.00 72 1015.4
20260831104048 82 299 0.0 1.0 0.00 0.00 0.00 71 1015.3
20260831103543 82 315 0.0 2.0 0.00 0.00 0.00 71 1015.6
20260831103039 82 302 0.0 2.0 0.00 0.00 0.00 71 1015.4
20260831102532 82 229 0.0 1.0 0.00 0.00 0.00 70 1015.5
20260831102027 82 326 0.0 0.0 0.00 0.00 0.00 70 1015.4
20260831101522 82 258 0.0 2.0 0.00 0.00 0.00 69 1015.5
20260831101019 82 318 2.0 2.0 0.00 0.00 0.00 70 1015.3
20260831100514 82 309 0.0 1.0 0.00 0.00 0.00 69 1015.4
20260831100010 82 274 1.0 1.0 0.00 0.00 0.00 68 1015.5
20260831095508 83 288 0.0 2.0 0.00 0.00 0.00 68 1015.4
20260831095003 83 263 0.0 2.0 0.00 0.00 0.00 68 1015.4
20260831094459 83 240 0.0 2.0 0.00 0.00 0.00 68 1015.4
20260831093955 83 309 0.0 1.0 0.00 0.00 0.00 68 1015.4
20260831093450 83 331 1.0 2.0 0.00 0.00 0.00 67 1015.2
20260831092947 83 336 0.0 2.0 0.00 0.00 0.00 67 1015.2
20260831092443 83 311 0.0 2.0 0.00 0.00 0.00 66 1015.2
20260831091942 83 263 2.0 2.0 0.00 0.00 0.00 66 1015.1
20260831091438 84 296 1.0 2.0 0.00 0.00 0.00 66 1015.1
20260831090933 84 269 0.0 2.0 0.00 0.00 0.00 66 1015.1
20260831090429 84 259 0.0 2.0 0.00 0.00 0.00 65 1015.0
20260831085925 84 276 1.0 2.0 0.00 0.00 0.00 65 1015.1
20260831085420 84 8 0.0 2.0 0.00 0.00 0.00 64 1015.1
20260831084919 84 209 1.0 2.0 0.00 0.00 0.00 64 1015.0
20260831084416 84 255 0.0 2.0 0.00 0.00 0.00 64 1014.8
20260831083912 84 121 1.0 2.0 0.00 0.00 0.00 63 1015.0
20260831083407 84 143 0.0 2.0 0.00 0.00 0.00 63 1015.0
20260831082906 84 309 1.0 3.0 0.00 0.00 0.00 63 1014.9
20260831082406 84 318 0.0 2.0 0.00 0.00 0.00 62 1014.9
20260831081901 84 276 0.0 2.0 0.00 0.00 0.00 62 1014.8
20260831081356 85 311 1.0 2.0 0.00 0.00 0.00 61 1014.8
20260831080853 85 247 0.0 2.0 0.00 0.00 0.00 61 1014.8
20260831080348 85 284 0.0 2.0 0.00 0.00 0.00 61 1014.8
20260831075843 85 239 1.0 2.0 0.00 0.00 0.00 60 1014.8
20260831075338 86 155 1.0 2.0 0.00 0.00 0.00 59 1014.7
20260831074833 86 292 2.0 3.0 0.00 0.00 0.00 59 1014.5
20260831074332 86 87 0.0 3.0 0.00 0.00 0.00 58 1014.8
20260831073828 86 33 1.0 3.0 0.00 0.00 0.00 58 1014.7
20260831073326 86 302 0.0 3.0 0.00 0.00 0.00 57 1014.7
20260831072822 86 329 1.0 2.0 0.00 0.00 0.00 57 1014.5
20260831072318 86 245 1.0 2.0 0.00 0.00 0.00 56 1014.7
20260831071814 86 63 0.0 3.0 0.00 0.00 0.00 56 1014.6
20260831071313 86 295 2.0 3.0 0.00 0.00 0.00 57 1014.6
20260831070808 86 321 0.0 2.0 0.00 0.00 0.00 57 1014.7
20260831070307 86 297 0.0 1.0 0.00 0.00 0.00 57 1014.7
20260831065806 86 249 0.0 1.0 0.00 0.00 0.00 57 1014.8
20260831065306 86 240 0.0 2.0 0.00 0.00 0.00 57 1014.7
20260831064800 86 322 0.0 0.0 0.00 0.00 0.00 56 1014.7
20260831064255 87 269 2.0 2.0 0.00 0.00 0.00 56 1014.9
20260831063751 87 316 1.0 2.0 0.00 0.00 0.00 56 1014.8
20260831063246 87 205 0.0 2.0 0.00 0.00 0.00 56 1014.7
20260831062745 87 293 0.0 3.0 0.00 0.00 0.00 55 1014.7
20260831062240 87 333 0.0 2.0 0.00 0.00 0.00 56 1014.9
20260831061738 87 328 1.0 2.0 0.00 0.00 0.00 56 1014.8
20260831061234 87 255 0.0 0.0 0.00 0.00 0.00 56 1014.8
20260831060730 87 327 1.0 2.0 0.00 0.00 0.00 56 1014.7
20260831060225 87 236 0.0 1.0 0.00 0.00 0.00 55 1014.7
20260831055724 88 269 0.0 2.0 0.00 0.00 0.00 55 1014.8
20260831055224 88 150 1.0 2.0 0.00 0.00 0.00 55 1014.8
20260831054719 88 315 2.0 2.0 0.00 0.00 0.00 55 1014.7
20260831054214 88 322 0.0 2.0 0.00 0.00 0.00 55 1014.9
20260831053707 88 260 0.0 2.0 0.00 0.00 0.00 54 1014.8
20260831053206 88 268 1.0 2.0 0.00 0.00 0.00 54 1014.7
20260831052706 88 230 0.0 1.0 0.00 0.00 0.00 54 1014.7
20260831052205 88 294 2.0 2.0 0.00 0.00 0.00 54 1014.7
20260831051703 88 277 1.0 2.0 0.00 0.00 0.00 54 1014.5
20260831051202 88 289 1.0 2.0 0.00 0.00 0.00 54 1014.6
20260831050657 88 269 0.0 1.0 0.00 0.00 0.00 54 1014.6
20260831050156 88 259 1.0 2.0 0.00 0.00 0.00 54 1014.6
20260831045651 88 260 1.0 2.0 0.00 0.00 0.00 54 1014.4
20260831045145 88 329 0.0 1.0 0.00 0.00 0.00 54 1014.6
20260831044640 89 269 0.0 1.0 0.00 0.00 0.00 53 1014.6
20260831044135 89 272 1.0 2.0 0.00 0.00 0.00 52 1014.6
20260831043631 89 312 1.0 4.0 0.00 0.00 0.00 52 1014.5
20260831043126 89 315 1.0 2.0 0.00 0.00 0.00 51 1014.5
20260831042626 89 286 0.0 2.0 0.00 0.00 0.00 51 1014.5
20260831042121 90 292 1.0 2.0 0.00 0.00 0.00 51 1014.6
20260831041615 90 287 1.0 2.0 0.00 0.00 0.00 51 1014.3
20260831041114 90 307 1.0 2.0 0.00 0.00 0.00 51 1014.4
20260831040609 90 333 1.0 2.0 0.00 0.00 0.00 50 1014.4
20260831040103 90 306 1.0 2.0 0.00 0.00 0.00 50 1014.4
20260831035555 90 321 2.0 2.0 0.00 0.00 0.00 50 1014.4
20260831035051 90 321 2.0 2.0 0.00 0.00 0.00 50 1014.4
20260831034550 90 242 0.0 2.0 0.00 0.00 0.00 50 1014.3
20260831034046 90 296 0.0 2.0 0.00 0.00 0.00 50 1014.1
20260831033541 90 336 0.0 1.0 0.00 0.00 0.00 50 1014.2
20260831033036 90 257 0.0 2.0 0.00 0.00 0.00 50 1014.2
20260831032535 90 313 0.0 2.0 0.00 0.00 0.00 50 1014.1
20260831032031 90 280 1.0 1.0 0.00 0.00 0.00 51 1014.3
20260831031531 90 255 0.0 1.0 0.00 0.00 0.00 50 1014.5
20260831031030 90 242 0.0 0.0 0.00 0.00 0.00 50 1014.3
20260831030529 90 242 0.0 1.0 0.00 0.00 0.00 50 1014.2
20260831030029 90 235 0.0 1.0 0.00 0.00 0.00 50 1014.1
20260831025521 91 259 0.0 2.0 0.00 0.00 0.00 49 1014.1
20260831025016 91 284 0.0 2.0 0.00 0.00 0.00 49 1014.0
20260831024507 91 287 0.0 2.0 0.00 0.00 0.00 49 1014.1
20260831024006 91 316 1.0 2.0 0.00 0.00 0.00 48 1014.0
20260831023504 91 263 0.0 2.0 0.00 0.00 0.00 48 1013.9
20260831022959 91 236 1.0 1.0 0.00 0.00 0.00 48 1013.8
20260831022458 92 230 0.0 1.0 0.00 0.00 0.00 48 1013.7
20260831021953 92 295 0.0 2.0 0.00 0.00 0.00 47 1013.7
20260831021452 92 249 1.0 2.0 0.00 0.00 0.00 47 1013.6
20260831020949 92 268 0.0 1.0 0.00 0.00 0.00 47 1013.6
20260831020449 92 310 0.0 1.0 0.00 0.00 0.00 46 1013.4
20260831015943 92 247 0.0 2.0 0.00 0.00 0.00 46 1013.5
20260831015439 93 240 0.0 1.0 0.00 0.00 0.00 46 1013.3
20260831014934 93 275 1.0 2.0 0.00 0.00 0.00 45 1013.2
20260831014429 93 232 1.0 2.0 0.00 0.00 0.00 45 1013.2
20260831013924 94 303 0.0 2.0 0.00 0.00 0.00 45 1013.1
20260831013420 94 276 2.0 2.0 0.00 0.00 0.00 44 1013.1
20260831012914 94 292 2.0 2.0 0.00 0.00 0.00 44 1013.0
20260831012415 94 243 1.0 3.0 0.00 0.00 0.00 44 1013.0